Wind_Speed
79 78 78 77 77 77 77 77 77 77 77 77 77 77 77 76 76 76 76 76 76 76 75 75 75 76 76 76 77 78 78 79 79 80 80 81 82 82 82 81 79 77 74 71 68 66 64 62 62 61 60 59 58 58 59 60 61 62 63 63 63 64 64 64 63 63 62 61 59 56 54 52 50 51 51 50 50 51 49 49 49 49 49 48 46
79 79 78 78 77 77 77 77 77 77 77 77 77 77 76 76 76 76 76 76 76 76 75 75 76 76 77 78 78 79 79 79 80 80 80 80 80 79 78 75 73 70 67 65 63 62 61 61 60 59 59 57 57 58 59 61 62 62 62 62 63 63 62 62 61 60 58 57 55 53 51 49 48 48 48 47 47 47 46 45 43 42 40 40 39
78 78 77 76 76 75 75 75 76 76 76 76 76 75 74 74 73 73 73 73 74 74 74 74 75 76 76 77 77 77 77 77 78 78 77 77 76 73 70 68 66 63 62 61 61 60 59 59 58 58 57 56 57 59 60 61 61 61 62 61 61 61 60 59 57 56 54 53 51 49 48 46 45 45 44 43 43 42 40 38 37 35 33 34 35
74 73 72 72 71 71 71 72 72 72 72 72 72 71 70 69 68 68 69 69 70 70 70 71 71 71 72 71 71 71 71 71 71 71 71 70 67 65 63 61 60 60 59 59 59 58 57 57 56 56 56 56 58 59 60 61 61 61 61 60 59 58 57 56 54 52 51 49 48 46 45 44 42 41 39 39 38 36 33 31 30 30 29 29 30
67 65 65 65 64 64 64 64 65 65 66 66 65 65 63 62 62 62 62 62 62 62 63 63 64 64 64 64 63 63 62 63 63 63 63 62 60 59 59 58 58 58 57 57 56 56 56 56 56 56 56 57 58 59 60 60 60 59 59 59 57 56 54 52 51 49 48 47 45 43 42 40 38 35 34 33 33 31 27 24 24 24 24 24 24
59 59 58 58 57 57 56 56 56 57 57 57 56 55 54 54 55 54 53 53 54 54 55 56 58 58 58 57 56 55 55 56 56 57 57 57 57 56 56 56 56 56 55 55 54 54 55 56 56 57 57 58 59 59 59 59 58 58 57 56 54 52 51 49 48 47 46 44 41 39 38 36 33 30 28 26 25 25 21 19 21 20 20 21 21
56 56 55 54 52 51 50 49 48 48 48 49 49 48 49 50 49 48 49 49 49 50 52 53 54 54 53 53 52 52 53 53 54 54 54 54 54 54 54 54 54 54 54 54 54 55 56 57 57 58 58 59 59 59 58 57 56 56 54 52 50 49 47 46 45 44 42 40 37 35 33 31 29 25 23 21 18 17 18 19 22 22 22 22 21
54 53 52 50 49 47 45 43 44 44 45 46 47 47 48 48 47 47 47 47 47 48 50 51 52 51 51 51 51 51 51 52 52 52 52 52 52 52 52 52 53 53 54 54 55 56 57 58 58 59 59 59 59 58 57 55 54 52 50 48 46 45 44 42 41 40 38 35 33 30 29 27 25 21 19 18 16 14 15 18 21 23 25 23 22
53 51 49 48 46 44 43 43 44 45 46 46 47 48 48 47 46 45 45 45 46 47 49 50 50 50 50 49 50 50 50 50 50 50 50 51 51 51 52 52 53 54 54 55 57 58 58 58 59 59 59 58 58 56 55 53 51 49 46 44 43 42 41 39 38 36 34 31 28 26 25 23 22 20 18 16 15 14 14 16 20 22 23 23 23
50 48 47 46 45 44 45 46 45 45 45 45 46 46 46 45 44 43 44 44 45 47 48 48 48 48 48 47 48 48 48 48 49 49 50 51 52 52 53 54 55 56 56 57 58 58 59 58 58 58 57 57 56 54 52 50 48 45 43 41 40 40 39 36 34 32 29 27 25 23 21 20 20 19 16 13 13 14 14 15 19 20 19 20 21
46 45 44 44 44 44 45 45 43 43 42 42 42 42 43 42 42 43 43 43 44 45 45 46 46 46 46 46 47 47 48 49 50 51 51 52 53 54 55 56 57 57 58 58 58 58 58 57 57 57 56 55 53 52 50 47 45 43 40 38 38 38 36 33 30 28 25 24 22 20 19 18 18 16 13 11 12 13 14 15 15 15 14 17 21
43 42 41 41 42 42 42 41 39 38 38 38 39 40 40 40 40 41 42 43 43 43 44 45 45 45 46 47 48 48 49 50 51 52 52 53 55 56 57 58 58 58 58 58 58 57 56 56 56 56 54 53 51 49 47 45 42 40 37 36 35 34 32 29 27 24 23 22 20 19 18 17 16 13 11 12 12 13 15 16 13 12 14 17 21
40 38 37 37 37 37 37 37 36 36 36 37 38 38 38 38 39 40 41 42 42 43 45 44 44 45 47 47 48 49 50 50 51 52 53 54 56 57 58 58 58 58 57 56 55 55 55 55 55 54 52 50 48 46 44 42 40 37 35 33 31 30 29 26 23 21 20 20 19 17 16 15 14 12 12 12 12 14 17 18 16 17 19 20 21
37 36 34 34 33 33 33 34 35 36 36 37 37 37 37 38 39 41 41 41 42 43 43 44 45 46 48 49 49 49 49 50 51 52 53 54 55 56 56 56 56 56 55 54 53 54 54 54 53 51 49 47 45 43 41 39 37 34 32 29 27 27 25 22 20 19 18 18 17 16 14 13 11 12 12 11 12 15 18 18 18 20 21 22 23
37 36 35 34 33 32 33 35 36 36 36 36 36 37 37 38 39 40 40 41 42 42 43 45 47 48 49 49 48 47 47 48 49 50 51 52 53 54 54 54 53 53 52 52 52 53 52 51 50 48 46 44 43 41 39 37 34 31 28 25 23 23 21 19 17 17 17 16 15 14 12 10 9 11 11 11 12 15 16 15 16 19 20 22 24
37 36 36 35 34 34 36 36 35 35 35 35 36 37 38 38 39 39 40 41 41 42 44 46 47 48 48 47 45 45 46 47 48 49 50 50 51 51 51 51 51 52 52 52 52 51 50 48 47 46 44 43 41 39 37 35 31 27 23 20 20 20 18 16 15 15 15 15 14 13 11 9 10 12 13 14 13 14 14 14 15 17 19 21 22
35 35 35 35 35 36 37 36 35 36 35 36 38 38 38 39 38 38 40 41 42 44 46 47 47 46 45 45 45 46 46 47 47 48 48 49 50 50 51 51 52 52 52 51 50 49 48 46 45 44 43 41 39 37 34 32 28 22 18 16 17 17 16 15 14 13 13 13 13 12 11 10 11 12 14 15 14 15 16 16 15 16 18 19 19
35 35 36 36 37 37 36 36 37 36 36 38 38 38 39 39 39 39 42 43 44 45 46 45 44 44 44 45 46 46 45 44 45 46 47 48 50 51 52 52 53 52 51 50 49 47 46 45 43 42 41 39 37 34 31 28 23 18 14 13 13 14 14 14 13 12 12 12 11 11 11 10 11 12 13 14 14 14 16 17 15 14 16 18 19
39 39 38 38 38 38 37 37 37 36 38 40 38 40 41 40 39 41 44 43 43 44 43 42 42 43 45 45 44 43 43 43 44 46 48 49 51 52 52 52 52 52 51 49 47 46 44 43 42 41 39 37 35 32 28 24 18 14 12 11 11 12 13 13 13 12 11 10 10 10 10 10 10 11 13 14 14 14 15 18 17 15 15 17 20
40 39 38 38 39 39 39 38 38 39 40 39 39 43 42 39 41 43 44 42 42 43 41 40 41 43 43 42 41 42 44 46 47 49 50 51 52 52 52 52 52 51 49 47 46 44 43 41 40 39 36 34 32 28 25 20 14 11 10 9 9 10 11 12 12 11 10 9 9 9 10 9 9 10 12 14 15 15 16 18 18 18 18 18 20
37 38 37 37 36 37 37 38 40 40 39 39 43 44 40 40 43 44 42 41 42 40 39 40 41 40 39 40 42 44 46 48 49 50 51 52 52 52 51 51 50 49 47 45 44 42 41 39 38 36 34 31 28 24 20 15 11 10 9 8 7 8 9 10 12 12 11 9 8 8 9 9 9 9 11 13 15 16 16 18 19 19 20 20 20
33 34 34 34 34 35 36 38 39 38 39 42 43 41 40 42 44 43 41 41 40 38 38 39 38 37 39 41 43 46 47 48 49 50 51 52 52 50 49 48 47 46 45 43 41 40 39 38 36 34 31 28 25 21 16 11 9 9 8 7 6 6 7 9 11 11 11 10 9 8 8 8 8 8 9 11 13 16 17 18 20 20 20 21 21
31 32 33 34 35 34 35 36 36 38 41 41 40 40 41 43 43 42 40 38 36 35 37 36 36 38 40 42 44 46 48 48 49 50 50 50 49 48 46 45 45 44 43 41 40 39 37 36 33 31 28 25 21 17 12 9 8 8 8 7 6 6 6 7 9 10 11 11 10 9 8 8 7 8 8 9 11 14 17 20 21 21 20 20 21
32 32 33 33 33 33 34 36 38 40 41 40 41 42 41 40 40 39 37 34 33 35 35 35 37 40 42 43 45 47 48 48 49 49 49 48 46 44 43 43 43 42 41 40 39 38 36 33 31 28 25 22 18 13 10 8 8 8 8 7 6 5 5 6 7 8 9 10 10 10 9 8 8 7 7 7 9 11 14 18 21 21 20 20 21
31 31 31 32 33 35 37 38 40 41 41 41 41 40 38 37 36 35 33 31 32 34 34 35 39 41 43 45 46 47 47 48 48 48 46 44 43 43 42 41 41 40 39 39 38 36 34 31 28 25 22 18 15 10 8 9 8 8 8 8 6 6 5 5 6 6 7 8 9 9 9 9 9 8 8 7 8 9 10 13 16 19 20 20 22
29 31 32 34 35 37 38 40 41 42 42 41 40 38 36 35 33 32 30 30 32 34 34 37 40 41 44 46 46 46 46 46 46 45 43 42 41 41 40 39 39 39 39 37 36 34 32 29 25 22 19 16 12 9 9 9 9 8 8 8 7 6 6 5 5 5 5 6 7 7 8 7 8 8 8 8 8 8 9 10 12 15 17 18 20
30 32 34 35 36 37 38 40 40 41 41 40 39 37 34 33 31 29 28 30 32 33 35 38 40 42 44 46 46 45 44 44 43 42 41 40 40 39 38 38 38 39 38 36 34 32 29 26 23 19 16 14 11 9 9 10 9 8 8 8 7 6 6 5 5 5 4 5 6 6 6 6 6 6 7 7 8 8 8 9 10 12 13 15 16
29 30 31 32 33 34 35 37 38 39 39 39 37 34 31 30 28 26 28 30 31 33 35 38 41 43 44 44 44 43 42 41 40 39 39 39 38 38 38 37 38 38 36 34 32 31 27 23 20 17 15 12 11 10 10 10 9 8 8 8 7 7 6 6 5 5 5 5 5 6 7 6 6 5 5 6 7 8 9 9 9 10 11 12 13
25 25 26 26 27 28 30 32 33 35 36 36 33 30 29 27 25 26 28 29 30 33 36 38 41 42 42 41 41 40 39 38 38 38 37 37 37 37 37 37 37 36 34 32 31 29 26 21 18 15 13 12 11 10 10 10 10 9 9 8 8 8 7 7 6 6 6 5 6 6 7 7 6 6 5 6 6 7 8 9 9 10 10 11 11
21 22 22 22 23 25 28 28 29 31 33 31 29 27 25 24 24 26 27 28 30 33 35 38 41 41 39 39 39 38 37 36 36 36 36 36 36 36 37 36 35 34 32 30 29 28 25 20 16 13 12 12 12 11 11 11 10 10 9 9 8 8 8 8 8 7 7 7 7 7 7 7 7 6 5 5 6 6 7 8 9 10 10 10 11
20 21 21 21 23 25 25 25 26 27 28 26 25 24 22 22 23 24 26 29 31 33 36 38 39 38 37 37 37 37 36 35 35 35 36 36 36 36 36 35 34 32 31 28 28 27 23 19 15 12 11 12 13 12 12 11 11 11 10 10 9 9 10 9 9 9 9 9 8 8 8 7 7 7 6 6 6 6 6 7 8 9 10 10 11
21 23 23 22 23 23 22 21 21 22 22 23 22 20 19 21 22 23 27 30 32 34 36 38 37 36 36 37 36 36 35 34 34 34 35 36 36 35 35 34 32 30 28 27 26 25 22 18 15 12 11 11 13 13 13 12 12 12 11 11 11 11 11 11 11 10 10 10 10 10 9 8 7 7 7 7 7 6 6 6 7 7 8 9 10
23 24 23 21 21 18 17 17 16 17 18 19 18 15 17 19 21 24 27 30 33 36 37 36 35 34 35 35 35 35 34 34 33 34 35 36 36 35 34 33 31 28 26 25 25 24 21 17 15 12 11 11 13 14 14 13 13 12 12 12 12 12 13 13 13 12 12 11 11 11 10 10 9 8 7 8 8 8 8 7 7 7 7 8 9
23 21 19 17 16 14 14 14 14 15 16 16 14 14 16 19 22 25 28 31 34 36 36 34 32 33 34 34 34 34 34 34 34 34 35 35 35 35 33 31 29 26 24 24 24 22 20 17 15 13 11 11 13 15 15 14 13 13 13 13 13 13 14 14 14 14 13 13 12 12 12 11 10 10 9 9 9 9 9 9 9 8 8 8 9
19 15 14 13 14 14 14 13 13 14 14 14 13 14 17 19 22 26 29 32 34 35 33 32 31 32 33 33 33 34 34 34 34 35 35 35 35 34 32 30 27 24 23 23 23 21 19 17 14 13 12 12 13 15 16 15 14 14 14 14 14 15 15 15 16 16 15 15 14 14 13 12 12 11 11 10 10 10 11 11 11 10 10 9 10
14 14 15 16 18 17 14 12 11 11 12 14 15 16 17 20 24 27 30 33 33 32 31 30 30 31 32 33 33 34 35 34 35 35 34 34 34 32 31 29 26 23 22 22 22 20 18 17 15 13 12 12 13 15 16 16 16 16 16 16 16 16 16 17 17 17 17 17 16 16 15 14 14 13 13 13 12 12 12 12 12 12 12 11 11
17 18 18 19 20 17 14 12 11 12 13 16 17 17 19 24 27 29 31 32 31 30 29 28 30 31 32 33 34 34 35 34 34 34 34 34 32 31 30 28 26 23 22 21 21 19 17 16 15 14 13 12 13 15 16 17 17 18 18 18 17 17 18 18 18 19 19 19 18 18 17 17 16 15 15 15 15 14 14 14 14 14 14 13 13
22 23 22 21 20 17 15 13 12 13 15 17 19 20 23 27 31 32 31 29 28 28 27 28 30 32 32 33 34 34 34 34 33 33 33 33 31 30 29 28 26 24 23 21 20 19 17 15 15 14 13 13 13 15 16 17 18 19 20 19 19 19 20 20 20 20 20 20 20 19 19 19 18 17 17 16 16 16 16 16 16 16 16 15 15
26 28 26 22 19 18 15 13 14 16 18 19 21 23 27 31 32 32 29 26 25 25 26 29 32 32 32 33 33 33 33 32 32 32 32 32 30 29 28 27 26 24 23 22 20 19 17 15 14 14 13 13 13 14 16 18 19 20 20 21 21 21 22 22 22 22 22 21 21 20 20 20 20 19 19 18 18 18 17 17 17 17 17 17 17
30 31 27 22 20 17 15 15 17 19 21 22 23 27 30 31 30 28 26 24 23 24 27 31 32 32 31 31 31 32 31 31 31 32 32 31 30 29 27 27 26 24 23 22 21 19 17 15 13 13 13 13 13 13 15 17 19 20 20 21 21 22 23 22 22 23 22 22 22 21 21 21 21 21 21 20 20 19 19 19 19 19 19 18 18
32 30 26 22 19 17 15 16 18 20 23 24 27 29 28 27 25 24 23 22 22 25 28 31 31 30 29 28 29 30 30 30 31 31 31 31 30 28 27 26 25 24 23 22 21 20 19 16 14 13 12 12 13 13 14 16 18 19 20 21 21 22 23 23 23 23 23 23 22 22 22 22 22 22 22 22 21 21 20 20 20 20 20 20 20
26 22 22 20 17 16 17 18 21 23 24 26 28 27 24 23 22 22 22 21 22 26 29 29 29 27 26 27 29 29 29 29 30 30 30 30 29 28 27 26 24 23 22 22 22 21 20 18 16 14 13 12 12 12 13 14 16 18 20 22 22 23 23 23 24 24 24 24 24 24 24 24 24 24 24 23 23 23 22 22 21 21 21 21 21
16 15 17 18 19 19 20 22 23 25 26 27 27 25 24 23 23 22 21 21 23 27 29 29 27 25 25 27 28 28 28 28 29 29 29 29 28 28 27 25 23 22 22 22 22 22 20 19 17 16 15 13 12 12 12 13 14 16 19 21 23 24 24 25 25 26 26 26 26 26 26 26 26 26 25 24 24 24 24 23 23 22 22 22 23
15 15 16 19 21 22 23 24 25 26 27 27 26 26 25 25 24 22 21 22 26 28 29 28 25 24 25 26 26 26 27 27 28 29 28 28 27 27 26 25 23 22 22 22 22 22 21 20 18 17 16 15 13 13 12 12 13 15 16 19 21 22 24 25 26 27 28 28 28 28 28 28 28 27 27 26 25 24 24 24 24 24 24 24 24
19 18 18 19 22 24 25 26 26 26 26 26 25 24 25 25 24 23 22 25 27 28 27 26 23 23 24 25 25 26 27 27 27 28 28 27 27 26 25 24 23 22 22 22 22 22 21 21 19 18 16 15 14 13 12 12 13 14 15 16 18 20 21 23 24 26 27 27 28 28 28 28 28 27 26 26 26 25 25 25 25 25 25 26 26
20 19 20 23 25 25 24 24 23 23 23 22 21 22 23 24 24 24 23 25 27 26 25 24 22 22 23 24 25 26 26 26 27 27 27 27 27 26 25 25 24 23 22 22 22 22 22 21 20 19 18 17 16 15 14 13 12 13 13 15 16 18 19 21 22 23 24 25 26 26 26 26 26 26 26 25 25 25 25 26 26 26 26 26 27
21 22 23 24 25 23 21 21 21 21 20 19 21 22 22 23 24 23 23 25 26 25 24 23 22 22 23 25 26 27 26 26 27 27 27 28 27 27 25 24 24 23 22 21 21 22 21 21 21 20 20 19 17 16 15 14 13 13 13 13 15 16 17 18 20 21 22 23 24 25 26 26 26 26 26 25 25 25 25 26 26 27 27 27 28
21 23 21 21 23 24 24 23 22 20 19 20 22 22 21 22 22 21 23 25 25 24 23 23 23 22 23 26 28 28 27 27 26 26 26 27 27 26 25 24 23 23 22 21 21 20 20 20 20 21 20 20 18 17 15 14 13 13 13 13 14 15 16 17 18 20 21 22 23 24 25 26 26 26 26 26 26 26 26 26 27 27 28 28 28
18 17 18 20 23 24 25 25 24 21 19 20 20 20 20 21 21 21 24 25 24 23 24 24 24 24 26 28 29 29 28 26 26 26 25 25 25 25 23 22 22 22 21 21 20 19 18 18 19 20 20 19 18 17 15 13 13 13 13 13 14 15 16 17 19 20 21 22 23 25 26 26 26 26 26 27 27 27 26 27 27 28 28 28 28
18 17 17 18 19 21 24 25 23 20 18 19 20 21 22 23 23 23 24 25 24 23 24 24 25 26 29 29 30 30 29 26 26 26 25 24 24 23 22 21 21 22 20 19 19 18 17 18 19 19 18 17 16 15 14 13 13 13 13 14 14 16 17 18 19 20 21 22 23 25 26 27 27 27 27 27 27 27 27 28 28 28 28 29 28
20 19 18 18 19 21 24 23 20 19 18 18 20 22 23 23 23 22 24 26 25 24 24 25 26 27 29 30 31 31 29 28 28 27 25 24 23 23 22 21 21 21 20 19 18 17 18 19 19 19 17 16 15 14 14 13 13 13 13 13 14 14 15 16 17 18 19 21 22 23 25 27 28 28 28 27 27 27 27 27 28 29 29 29 30
Wind_Direction
269 270 270 270 271 271 272 273 273 274 275 276 277 278 279 279 281 282 283 283 284 285 285 286 287 288 289 290 290 290 291 291 292 292 293 294 295 296 297 298 299 299 299 298 298 297 296 295 295 295 295 296 296 296 296 296 295 295 295 295 294 293 292 292 291 291 290 288 287 286 284 282 281 281 281 280 279 277 275 273 273 272 271 268 264
270 271 271 271 272 272 273 273 274 274 275 276 277 278 279 280 281 282 283 284 284 284 285 286 287 289 290 291 291 292 292 292 293 293 294 295 296 298 298 299 299 299 298 298 297 296 296 296 296 296 296 296 297 297 296 296 296 296 296 295 295 294 293 293 292 291 290 289 287 286 284 283 283 282 282 281 278 276 274 271 270 269 267 262 258
271 272 272 273 273 273 274 274 275 275 276 276 277 278 280 281 283 283 284 284 284 285 285 287 288 290 291 292 293 293 293 293 294 294 295 297 298 299 299 299 298 298 297 297 297 296 297 297 297 297 297 297 297 297 297 297 297 297 297 296 296 295 294 293 292 291 290 289 287 286 286 285 284 283 281 279 276 274 272 269 266 265 263 258 253
271 272 273 273 273 274 274 275 275 276 276 277 278 279 281 282 284 285 285 285 285 286 287 288 290 292 293 294 295 295 295 295 295 296 297 298 298 299 299 298 298 298 297 297 297 297 298 298 298 297 298 298 298 298 298 298 298 298 298 297 296 295 294 293 292 291 290 289 288 288 288 287 285 283 280 277 274 271 267 264 261 259 258 256 253
271 272 273 273 274 275 275 276 276 277 277 278 279 280 282 283 286 287 287 287 288 289 290 292 293 294 296 297 297 297 297 297 298 298 298 298 299 299 298 298 298 298 297 298 298 299 299 298 298 299 299 299 299 300 299 299 300 299 298 297 296 294 293 292 291 290 290 290 290 290 288 286 284 281 278 275 273 269 263 260 259 255 251 250 248
271 272 273 274 275 276 277 278 278 278 278 279 280 281 283 286 289 291 291 291 292 293 294 295 296 297 298 299 299 299 299 300 300 299 299 299 299 299 298 298 298 298 298 298 299 300 300 299 300 300 301 301 301 301 301 301 301 300 299 297 296 294 293 292 292 291 291 291 291 289 286 284 281 277 274 272 269 265 258 252 252 247 239 238 236
270 271 272 274 275 277 278 279 279 280 280 280 281 282 285 289 292 294 295 295 295 296 297 297 297 298 299 300 300 301 301 301 300 300 300 299 299 299 299 299 299 299 299 299 300 300 301 301 302 302 303 303 303 302 302 303 302 301 299 298 296 294 293 293 292 292 292 292 290 288 285 282 278 274 270 266 262 258 253 245 244 237 230 232 228
270 271 273 274 275 276 277 278 280 281 281 281 282 283 286 290 293 295 296 296 297 297 297 298 298 299 300 301 301 302 301 301 301 300 300 300 300 300 300 301 301 301 300 300 301 302 303 303 304 304 304 304 304 304 304 303 302 301 300 298 297 296 294 294 294 293 292 291 289 286 282 279 275 270 264 259 255 251 246 243 243 237 234 236 229
270 271 272 273 274 274 274 278 280 281 282 282 283 285 287 289 292 295 296 297 297 298 298 299 300 301 302 302 302 302 301 301 301 301 301 301 301 301 301 302 302 302 302 302 303 304 304 305 305 305 305 305 305 304 304 303 302 301 300 300 299 297 296 295 294 293 291 289 286 283 280 277 273 267 262 257 251 249 246 243 244 241 241 241 234
269 270 271 272 272 272 274 278 279 280 282 284 285 286 287 288 291 294 297 298 299 300 300 301 302 302 302 302 302 302 302 302 302 302 302 302 302 302 302 303 303 303 303 304 305 305 306 306 306 306 306 306 305 304 303 302 302 301 301 301 300 297 297 296 293 291 289 286 282 280 277 275 273 270 268 261 249 247 246 243 245 245 245 242 236
268 269 270 270 271 272 274 277 278 280 282 285 286 287 288 289 291 295 298 300 301 302 302 303 304 304 304 304 304 304 304 304 303 303 303 303 302 302 302 303 304 304 305 305 306 306 307 307 307 307 307 306 305 304 303 302 302 302 303 302 299 297 296 294 291 289 286 283 280 278 277 274 273 272 266 254 242 240 235 231 239 243 240 237 236
267 269 269 270 271 272 273 275 277 280 283 286 288 289 289 291 294 297 300 302 303 303 303 304 305 305 306 306 307 307 307 306 305 304 304 303 303 302 303 304 304 305 306 306 307 308 308 308 308 308 307 306 305 304 303 303 302 303 304 302 299 296 293 291 289 287 283 281 280 278 277 275 271 265 253 241 232 230 229 227 224 221 222 230 237
268 269 269 270 271 271 272 274 277 280 284 288 289 290 291 293 296 299 301 302 303 304 305 306 306 308 308 309 309 309 308 307 306 305 304 303 303 303 303 304 305 306 307 307 308 309 309 309 308 307 307 306 305 304 304 304 304 305 304 301 297 292 290 288 286 283 281 280 281 280 278 277 271 256 244 235 224 223 229 229 221 216 220 225 232
267 267 267 268 269 270 272 275 277 281 285 289 290 290 292 295 299 301 302 302 304 306 307 308 309 310 310 310 310 310 309 308 307 306 305 304 304 303 304 305 306 307 308 309 309 310 310 309 308 307 307 307 306 305 305 305 305 305 303 298 293 288 287 285 284 282 281 281 281 280 278 280 271 256 246 226 213 219 230 233 227 225 224 223 227
265 265 265 266 267 269 274 278 280 283 286 289 289 291 293 297 302 303 303 304 305 306 308 310 311 311 311 311 311 311 311 311 309 309 308 307 306 306 306 306 307 308 309 310 311 311 311 309 308 308 308 307 307 306 306 306 305 304 300 294 288 285 284 282 283 285 284 284 282 280 278 275 258 250 246 229 223 227 235 238 231 228 224 222 226
263 264 264 263 265 272 277 279 281 284 287 288 289 292 296 300 304 304 304 305 305 307 310 312 312 312 312 312 312 312 312 312 311 311 310 309 309 309 308 309 309 310 311 312 312 311 310 309 309 309 308 308 307 307 307 306 304 301 296 288 283 282 282 281 283 286 287 287 284 281 276 264 247 239 238 238 241 243 248 247 235 231 229 227 227
262 263 264 263 266 276 279 277 281 284 285 288 291 294 297 301 302 303 304 304 306 309 312 313 313 313 313 313 312 311 312 313 313 313 312 312 311 310 310 310 311 311 312 313 312 311 311 310 309 309 308 308 307 307 306 305 303 297 289 282 280 281 281 282 285 287 289 286 284 281 276 265 255 246 241 242 243 244 250 250 239 236 238 237 236
261 263 264 265 270 276 276 277 283 284 285 289 293 297 299 299 299 301 304 304 307 310 312 312 312 313 313 312 311 311 313 315 316 316 315 314 312 311 311 312 312 313 313 313 313 312 311 310 309 308 308 308 307 307 305 303 300 291 280 273 276 281 284 286 289 290 289 285 281 279 277 270 264 257 250 248 245 242 243 246 247 244 239 235 240
260 263 265 267 270 273 274 279 283 285 288 290 291 298 300 296 296 302 304 304 307 311 311 312 313 314 312 311 312 314 316 317 317 316 315 314 313 312 312 313 313 313 313 313 313 312 311 311 310 309 308 306 306 305 303 301 294 280 269 266 272 281 286 291 294 294 291 287 282 277 275 270 265 263 256 251 248 244 237 241 250 249 240 233 237
260 263 265 268 270 272 275 278 282 287 290 288 290 298 298 294 296 302 304 305 308 311 311 312 314 314 312 312 314 316 317 317 316 315 314 313 313 313 313 314 314 314 314 314 313 313 312 312 310 309 307 305 304 303 300 295 283 267 260 262 271 282 290 295 298 299 298 291 284 278 274 269 263 261 256 252 248 244 237 239 248 250 250 246 244
261 263 265 269 271 273 276 278 283 287 288 288 292 296 295 293 298 302 303 305 308 309 310 312 314 313 312 314 316 316 316 316 315 314 314 313 313 314 314 314 314 314 314 314 314 314 314 312 311 308 306 304 302 300 295 286 269 257 255 258 269 282 293 302 305 306 307 302 291 280 273 269 266 262 257 253 248 246 242 240 243 246 251 253 252
263 263 265 270 273 277 278 280 282 285 287 290 292 294 294 295 299 301 302 305 306 307 310 313 313 313 314 316 316 315 316 316 315 315 314 314 315 315 316 315 315 315 315 316 316 316 315 313 311 308 305 302 299 295 288 271 253 252 253 255 265 281 298 308 312 314 316 316 310 297 282 273 267 265 263 257 251 247 246 245 245 245 247 250 250
267 267 270 274 276 277 278 279 281 284 287 289 291 293 294 296 299 300 301 303 304 306 311 312 313 314 314 316 316 315 315 316 315 315 316 316 317 317 317 316 316 316 317 318 318 318 316 314 311 307 303 300 295 290 277 251 235 245 251 253 262 280 300 309 314 318 322 324 324 319 307 291 278 271 268 264 257 248 243 244 247 248 248 247 247
270 271 273 275 274 275 278 280 282 285 287 289 291 292 294 297 299 300 301 301 303 307 311 312 313 314 314 315 314 314 315 316 316 316 317 318 317 317 318 317 317 318 319 320 320 319 317 315 311 307 302 296 289 281 261 234 224 239 251 255 262 277 294 308 313 319 324 329 331 330 324 312 299 285 277 269 265 256 247 243 245 249 249 247 247
271 271 274 277 277 278 282 284 285 286 287 289 290 291 294 298 300 300 300 299 303 308 310 312 314 314 313 313 313 314 315 316 316 317 318 318 318 318 318 319 319 320 321 322 321 320 318 316 311 305 299 291 283 270 242 226 221 232 248 256 265 278 291 302 310 319 326 333 336 335 333 325 314 301 290 279 273 267 260 252 248 249 251 250 248
274 273 276 280 281 282 284 285 286 287 287 287 288 291 295 298 299 299 298 300 306 308 310 312 313 312 311 312 313 315 316 316 316 317 318 318 318 319 320 321 322 322 323 323 322 321 320 317 312 304 296 286 276 256 230 223 224 229 243 256 265 278 287 294 303 315 329 337 339 338 338 333 322 309 296 286 280 276 272 268 261 257 256 256 256
280 279 281 283 284 285 286 286 287 286 285 286 288 293 296 297 298 299 299 303 308 309 310 312 311 311 311 312 315 317 317 317 317 318 318 319 320 321 322 324 324 323 324 323 322 322 321 317 311 302 292 281 268 247 227 223 225 232 243 253 263 272 279 286 293 305 321 334 339 341 340 338 332 319 301 285 275 271 270 270 268 265 264 264 264
289 287 288 288 288 288 288 287 286 285 285 287 291 294 295 296 298 299 302 307 310 311 310 310 310 310 313 315 317 318 318 318 319 319 319 320 322 323 324 326 325 324 324 323 323 323 322 317 310 300 287 276 262 244 231 226 225 234 244 251 260 267 272 277 281 293 306 320 332 339 341 338 337 337 320 295 276 266 262 261 263 264 266 267 269
294 291 291 291 290 290 288 286 285 285 286 288 291 292 294 296 298 300 306 311 311 309 308 309 310 312 316 318 319 320 320 320 320 320 321 322 324 325 326 327 326 324 324 323 323 324 322 317 309 298 283 270 257 243 236 234 228 233 245 250 258 266 269 273 277 285 297 309 321 331 336 336 334 337 336 317 295 276 265 260 259 260 263 266 269
294 292 292 291 293 292 288 287 287 288 287 288 288 290 293 296 300 306 312 311 308 308 308 311 313 316 318 319 320 321 321 322 321 321 322 324 326 326 326 327 326 324 324 324 325 325 322 317 310 297 279 264 255 244 240 243 238 236 246 251 256 265 267 271 278 285 294 303 311 319 325 329 329 328 329 323 313 299 283 271 265 262 263 264 266
294 291 294 296 296 293 290 290 290 289 286 285 286 289 295 300 307 312 310 306 306 309 312 315 317 318 319 320 322 322 322 322 323 323 324 325 326 327 327 327 326 325 324 325 326 325 322 317 310 297 277 261 254 247 242 248 250 244 247 253 256 263 267 270 278 285 292 299 305 310 315 319 321 320 319 316 312 307 300 290 282 274 270 268 267
290 288 294 298 297 294 291 291 292 289 286 285 288 296 303 307 311 310 304 304 308 312 314 317 318 318 320 322 323 322 322 323 324 324 324 325 326 327 327 327 326 325 325 326 327 326 322 316 310 298 278 261 254 250 245 248 255 254 252 256 259 263 267 270 276 283 291 298 302 306 310 314 314 313 314 312 308 303 301 298 293 288 282 278 275
285 286 293 296 295 293 291 291 292 290 287 288 295 308 311 308 307 303 302 306 311 314 316 319 320 320 322 324 323 322 323 324 325 325 324 325 326 326 327 326 326 326 327 328 328 327 323 317 311 300 282 263 254 252 250 248 254 260 259 259 262 264 267 271 276 282 288 294 299 304 307 310 310 309 310 310 307 302 298 295 293 291 290 288 284
280 283 292 295 294 293 293 293 292 291 291 296 307 318 311 303 301 301 306 312 314 315 317 320 322 323 324 325 324 323 324 324 325 325 324 325 325 326 326 326 327 328 330 330 330 329 324 318 312 302 286 267 254 252 253 252 256 264 265 263 264 266 268 272 277 282 287 291 296 299 303 306 306 305 306 305 304 302 300 296 293 292 291 291 290
274 284 291 291 297 300 298 298 296 296 298 301 310 315 307 302 301 305 312 316 315 314 317 322 325 325 325 325 325 324 324 325 325 324 324 325 325 326 326 326 328 330 331 332 331 330 326 321 314 304 289 271 257 252 253 256 259 263 265 265 265 266 268 273 278 282 286 290 294 296 297 299 301 301 302 301 301 300 300 297 294 292 291 291 292
276 290 290 290 299 302 298 298 298 298 302 302 307 311 310 307 306 310 315 316 314 314 319 324 326 325 325 325 325 325 325 325 324 324 325 325 326 327 326 327 329 331 332 333 333 332 328 323 316 305 292 276 263 255 254 257 260 262 263 263 264 267 269 272 277 281 286 290 292 293 294 295 297 299 301 302 301 300 299 298 296 294 293 293 294
278 284 289 293 297 296 291 292 291 292 300 303 308 312 312 310 308 311 315 315 313 315 320 325 326 325 324 325 325 325 326 325 325 325 325 326 327 327 326 327 330 332 333 333 334 334 330 326 318 309 296 283 269 260 256 257 260 261 261 261 262 266 269 271 275 279 284 287 290 291 292 294 296 298 301 302 301 300 299 297 297 296 294 295 296
274 280 288 293 293 291 288 286 287 294 302 305 307 308 308 309 310 312 314 314 313 315 320 326 326 324 323 324 325 326 326 326 326 326 326 327 327 327 327 328 330 332 332 333 334 335 334 329 322 313 302 290 277 265 260 258 260 261 262 263 263 265 267 270 274 277 281 284 286 288 290 292 295 298 300 300 299 298 297 296 296 296 295 296 296
272 281 288 292 289 286 282 279 290 299 303 302 301 304 306 309 310 312 313 313 313 316 322 326 325 323 323 325 326 327 328 328 329 328 327 327 328 328 328 330 331 332 332 332 333 334 335 333 327 318 308 298 288 274 265 261 261 262 265 266 268 269 269 271 274 277 280 282 284 286 289 291 294 296 297 297 296 294 293 292 293 293 294 295 295
274 282 287 289 286 282 277 280 292 296 296 297 300 305 306 308 310 311 311 313 317 320 324 324 322 322 324 326 328 329 329 330 330 329 328 328 328 329 329 331 333 333 334 334 334 334 335 335 330 322 313 305 296 286 275 266 263 264 266 269 270 272 272 274 276 278 279 281 283 284 286 289 291 292 294 294 293 291 289 288 288 290 291 292 293
282 284 284 283 281 278 277 284 289 290 293 300 305 308 309 310 311 310 310 316 322 324 324 322 322 323 326 329 329 329 330 330 329 329 328 328 328 329 330 332 334 335 335 336 336 335 335 335 331 326 318 311 303 295 285 275 269 266 266 268 270 271 273 275 277 277 278 278 280 282 284 286 287 289 290 291 290 288 286 284 284 285 287 288 289
282 278 276 277 275 274 279 285 286 290 298 303 305 308 312 315 314 312 314 320 324 325 323 322 323 325 328 329 329 329 330 330 329 328 329 328 328 329 330 333 335 335 335 336 336 337 337 336 334 329 323 316 308 300 293 285 278 272 269 268 269 270 272 274 275 276 278 277 278 279 281 283 285 286 287 288 288 286 284 283 282 283 284 285 287
266 269 269 268 270 274 278 282 286 293 298 299 302 308 310 312 313 315 318 321 323 323 322 323 325 327 330 330 330 331 331 330 329 328 329 329 328 329 330 332 334 333 333 334 335 336 338 339 338 334 329 323 315 306 299 293 287 281 276 273 272 272 273 273 274 276 277 278 279 279 280 282 283 284 285 285 284 283 283 283 284 283 283 284 285
259 273 270 269 273 275 279 284 289 294 295 297 303 305 304 306 310 315 318 318 321 322 321 323 327 330 331 331 333 334 333 331 329 329 329 328 328 329 329 330 331 330 329 331 333 335 337 339 339 336 333 328 322 315 306 299 292 286 283 280 278 277 277 276 276 277 278 278 280 281 281 282 282 283 284 283 281 281 282 282 283 283 283 284 285
263 274 275 277 279 279 283 288 291 294 295 299 303 302 301 304 309 313 315 317 321 322 322 325 330 332 331 334 338 338 336 334 332 330 329 329 328 328 328 328 329 328 327 329 331 333 335 336 336 334 332 329 326 321 314 306 298 292 288 285 283 282 280 280 280 279 279 280 281 281 282 283 282 282 281 281 281 280 280 280 281 281 283 284 285
261 267 269 277 281 285 289 291 294 297 298 301 302 301 300 304 309 310 312 318 322 322 324 328 333 332 330 335 341 341 340 338 336 333 330 329 328 327 327 327 327 327 326 327 329 332 334 334 334 332 330 328 326 323 318 312 305 299 294 289 287 286 285 284 284 283 282 282 282 282 282 281 281 281 280 280 280 280 280 279 280 281 281 282 283
260 266 267 273 278 286 293 296 300 302 301 304 303 300 300 304 307 308 313 321 323 323 326 331 333 330 329 335 341 343 343 342 340 336 331 329 328 326 326 327 327 327 326 326 328 331 333 333 333 332 330 327 325 322 318 314 309 303 298 295 293 291 289 287 286 286 285 284 284 283 282 281 281 280 280 279 278 278 279 279 280 280 281 281 282
256 269 272 271 273 282 289 295 303 305 304 306 303 299 300 306 307 308 317 324 324 325 328 331 331 327 327 334 340 343 342 341 341 338 333 330 328 327 327 328 329 328 326 326 328 331 334 335 335 333 331 328 324 320 316 313 310 306 301 300 299 298 295 293 290 289 288 287 285 284 282 282 281 280 280 280 279 278 277 278 278 279 279 280 281
248 261 269 274 275 280 287 294 301 302 301 303 300 298 303 310 310 311 319 325 326 327 328 329 328 325 325 331 338 341 340 338 339 339 335 331 329 329 330 331 331 330 328 327 328 332 334 337 338 337 335 333 328 322 317 313 309 307 304 301 300 299 298 296 294 292 290 289 288 286 284 282 280 279 279 279 278 278 277 277 277 277 278 277 277
246 251 255 262 265 273 287 294 296 295 295 296 297 299 304 309 310 313 322 327 327 327 327 327 326 324 325 329 335 339 338 337 338 338 334 330 330 331 332 333 333 332 331 328 327 328 330 335 338 339 340 341 339 334 329 324 319 315 313 311 306 304 301 299 296 295 294 292 291 289 287 284 282 279 279 278 279 279 279 279 279 279 279 278 278
243 247 248 246 248 265 282 289 291 291 291 293 298 302 305 309 312 316 324 329 328 326 325 324 324 324 325 327 332 336 337 336 336 336 333 329 330 333 334 333 332 332 331 328 324 321 322 327 332 337 341 345 348 347 343 341 339 335 332 330 328 325 322 316 310 306 303 300 297 293 288 285 283 282 280 280 280 281 282 282 282 282 281 281 280
Height
10872 10872 10873 10873 10873 10873 10873 10873 10873 10872 10872 10871 10871 10870 10870 10870 10870 10870 10869 10868 10867 10865 10864 10863 10862 10860 10859 10857 10856 10854 10852 10850 10848 10846 10845 10843 10841 10840 10837 10834 10832 10830 10827 10825 10822 10820 10818 10816 10813 10809 10807 10805 10803 10800 10796 10792 10789 10787 10784 10781 10778 10776 10773 10770 10768 10767 10765 10763 10762 10761 10760 10760 10758 10755 10753 10753 10751 10751 10751 10749 10748 10748 10747 10748 10749
10868 10867 10868 10869 10869 10869 10869 10869 10869 10868 10868 10867 10867 10867 10867 10867 10867 10866 10865 10864 10862 10861 10860 10859 10857 10856 10854 10852 10850 10849 10847 10845 10843 10841 10840 10838 10837 10834 10832 10829 10827 10824 10822 10819 10817 10815 10813 10811 10808 10804 10803 10801 10798 10794 10790 10787 10784 10781 10778 10775 10772 10769 10766 10764 10762 10760 10758 10757 10755 10755 10755 10754 10753 10751 10748 10746 10744 10743 10743 10742 10743 10744 10744 10745 10745
10863 10863 10864 10864 10864 10865 10865 10865 10864 10864 10863 10863 10863 10863 10863 10863 10863 10862 10861 10860 10858 10857 10856 10855 10853 10852 10850 10848 10846 10844 10842 10840 10838 10837 10835 10833 10832 10829 10827 10824 10821 10819 10817 10814 10812 10810 10808 10805 10802 10800 10798 10796 10793 10788 10784 10781 10778 10775 10772 10769 10766 10763 10760 10758 10756 10753 10752 10751 10750 10749 10749 10749 10748 10747 10744 10741 10739 10738 10738 10738 10738 10739 10740 10741 10742
10858 10859 10859 10859 10860 10860 10861 10860 10860 10859 10859 10859 10859 10859 10859 10859 10859 10858 10857 10855 10854 10853 10852 10851 10849 10847 10845 10843 10841 10839 10837 10835 10834 10832 10830 10829 10827 10824 10822 10819 10816 10814 10812 10810 10807 10805 10803 10800 10797 10795 10793 10791 10787 10783 10778 10775 10773 10769 10766 10763 10760 10757 10754 10752 10750 10748 10747 10746 10745 10744 10743 10743 10743 10742 10738 10736 10734 10734 10734 10733 10733 10735 10736 10737 10738
10854 10854 10854 10855 10855 10856 10856 10856 10855 10855 10855 10855 10855 10855 10856 10856 10855 10854 10852 10851 10850 10849 10848 10847 10845 10843 10841 10839 10837 10835 10833 10831 10829 10827 10826 10824 10822 10819 10817 10815 10812 10810 10807 10805 10803 10801 10798 10795 10793 10790 10788 10785 10781 10777 10773 10770 10767 10764 10760 10756 10754 10751 10749 10746 10745 10743 10742 10741 10740 10739 10738 10738 10738 10737 10734 10732 10731 10731 10731 10730 10730 10732 10733 10734 10734
10849 10850 10850 10851 10852 10852 10852 10852 10851 10851 10851 10851 10852 10852 10852 10852 10851 10850 10848 10847 10846 10845 10845 10843 10841 10839 10837 10835 10833 10831 10829 10827 10825 10823 10821 10819 10817 10815 10812 10810 10808 10805 10803 10801 10799 10797 10794 10790 10788 10785 10782 10779 10775 10771 10767 10764 10761 10757 10754 10751 10748 10746 10744 10742 10740 10738 10737 10737 10736 10735 10733 10733 10733 10733 10732 10730 10728 10727 10728 10728 10728 10729 10730 10731 10732
10845 10846 10847 10847 10848 10848 10848 10847 10847 10847 10847 10848 10848 10848 10849 10848 10848 10846 10845 10844 10843 10842 10841 10840 10838 10836 10834 10832 10830 10827 10825 10823 10821 10819 10816 10814 10812 10810 10808 10805 10803 10801 10799 10797 10795 10792 10789 10786 10783 10780 10776 10772 10768 10764 10761 10759 10755 10752 10748 10746 10743 10740 10739 10737 10735 10733 10733 10733 10732 10730 10729 10729 10730 10731 10731 10729 10726 10724 10725 10726 10727 10728 10728 10728 10729
10841 10842 10843 10844 10844 10844 10844 10844 10843 10844 10844 10845 10845 10845 10845 10845 10844 10843 10842 10841 10840 10839 10838 10836 10834 10832 10831 10828 10826 10824 10821 10819 10817 10815 10812 10810 10808 10806 10803 10801 10799 10796 10794 10793 10790 10787 10784 10781 10777 10774 10770 10766 10762 10759 10756 10753 10750 10746 10744 10741 10738 10735 10734 10732 10731 10729 10728 10728 10728 10727 10726 10726 10726 10728 10728 10727 10725 10723 10723 10724 10725 10725 10726 10726 10727
10838 10839 10840 10840 10840 10840 10840 10840 10840 10840 10841 10841 10842 10842 10842 10842 10841 10840 10838 10838 10837 10836 10834 10832 10831 10829 10827 10825 10822 10820 10818 10815 10813 10811 10808 10806 10804 10801 10799 10797 10795 10792 10790 10788 10785 10782 10779 10775 10771 10768 10764 10760 10756 10753 10750 10747 10745 10742 10740 10737 10734 10730 10729 10728 10727 10725 10724 10724 10724 10723 10723 10723 10723 10724 10726 10726 10725 10723 10721 10721 10722 10723 10724 10724 10725
10835 10836 10836 10836 10837 10837 10837 10836 10837 10837 10838 10838 10838 10839 10838 10838 10837 10836 10835 10835 10834 10832 10830 10828 10827 10825 10823 10821 10819 10816 10814 10812 10809 10807 10804 10802 10799 10796 10795 10793 10790 10787 10785 10783 10780 10777 10774 10770 10766 10762 10758 10755 10751 10748 10745 10742 10740 10737 10736 10733 10730 10726 10725 10724 10722 10721 10721 10721 10721 10721 10721 10721 10720 10722 10725 10726 10725 10722 10720 10719 10718 10719 10720 10721 10722
10831 10832 10833 10833 10833 10833 10833 10833 10834 10835 10835 10835 10835 10835 10835 10835 10834 10833 10832 10832 10830 10828 10827 10825 10823 10821 10819 10818 10815 10813 10811 10808 10805 10803 10800 10798 10794 10792 10790 10788 10785 10782 10780 10778 10775 10772 10768 10764 10760 10756 10753 10750 10746 10743 10740 10738 10735 10734 10732 10729 10725 10723 10721 10720 10719 10719 10718 10718 10718 10719 10719 10719 10719 10719 10722 10723 10723 10722 10720 10718 10717 10718 10718 10717 10717
10828 10829 10829 10829 10830 10830 10830 10830 10831 10832 10832 10832 10832 10832 10831 10831 10831 10830 10829 10828 10827 10825 10823 10821 10820 10818 10816 10814 10812 10810 10807 10804 10801 10799 10796 10793 10790 10787 10785 10783 10780 10777 10775 10773 10770 10766 10762 10758 10755 10751 10748 10745 10741 10738 10736 10734 10731 10730 10729 10725 10722 10719 10718 10717 10717 10717 10716 10716 10716 10717 10717 10717 10717 10717 10718 10719 10720 10721 10720 10719 10720 10720 10719 10717 10715
10824 10825 10826 10826 10826 10826 10827 10828 10828 10829 10829 10829 10829 10829 10828 10828 10828 10827 10826 10825 10823 10822 10820 10818 10816 10815 10813 10810 10808 10806 10803 10800 10797 10794 10791 10788 10785 10782 10780 10778 10775 10772 10770 10768 10765 10761 10757 10753 10749 10746 10743 10740 10737 10734 10732 10730 10728 10727 10725 10722 10719 10716 10714 10715 10715 10715 10715 10714 10714 10714 10715 10715 10716 10715 10714 10715 10717 10718 10718 10718 10719 10720 10719 10718 10716
10821 10821 10822 10823 10823 10824 10824 10825 10825 10826 10826 10826 10826 10825 10825 10825 10825 10824 10823 10821 10820 10818 10817 10815 10813 10811 10808 10806 10804 10802 10799 10796 10793 10790 10787 10784 10780 10777 10775 10773 10770 10767 10765 10763 10760 10756 10752 10749 10744 10741 10738 10736 10733 10730 10728 10726 10725 10723 10721 10719 10716 10713 10712 10713 10713 10713 10713 10713 10713 10713 10713 10713 10713 10712 10711 10712 10714 10715 10714 10715 10716 10716 10717 10718 10716
10817 10818 10819 10820 10821 10821 10822 10822 10822 10823 10824 10823 10823 10822 10822 10822 10822 10821 10819 10818 10816 10815 10813 10811 10809 10807 10804 10802 10800 10797 10795 10791 10788 10785 10782 10779 10776 10773 10770 10768 10766 10763 10760 10758 10755 10752 10748 10744 10740 10737 10734 10731 10729 10726 10724 10723 10722 10720 10718 10716 10713 10710 10711 10711 10711 10711 10711 10711 10711 10711 10712 10712 10711 10710 10710 10710 10710 10711 10712 10713 10714 10714 10714 10715 10715
10814 10815 10816 10817 10818 10818 10819 10819 10820 10820 10821 10820 10820 10819 10819 10819 10818 10817 10816 10815 10813 10812 10810 10807 10805 10802 10800 10798 10796 10793 10791 10787 10784 10781 10778 10775 10771 10768 10766 10764 10761 10758 10756 10754 10751 10747 10744 10740 10736 10732 10729 10727 10725 10723 10721 10720 10719 10717 10716 10714 10711 10709 10709 10709 10710 10710 10709 10709 10709 10709 10710 10710 10709 10709 10710 10708 10708 10708 10709 10711 10711 10711 10712 10713 10713
10811 10812 10813 10814 10815 10815 10816 10816 10817 10817 10818 10817 10817 10817 10816 10816 10815 10814 10813 10811 10810 10808 10806 10803 10801 10798 10796 10794 10791 10789 10787 10783 10780 10777 10774 10771 10768 10764 10762 10760 10757 10754 10752 10749 10746 10743 10739 10735 10732 10729 10726 10723 10721 10720 10718 10717 10716 10715 10714 10712 10710 10708 10707 10707 10708 10709 10708 10707 10707 10707 10707 10708 10708 10708 10707 10706 10707 10707 10707 10708 10709 10710 10710 10710 10711
10809 10810 10810 10812 10812 10812 10813 10813 10814 10815 10815 10814 10814 10814 10813 10813 10812 10811 10809 10808 10807 10805 10803 10800 10797 10795 10792 10790 10787 10785 10782 10779 10776 10773 10770 10767 10764 10761 10758 10756 10753 10750 10748 10745 10742 10739 10735 10731 10728 10725 10722 10720 10718 10717 10715 10714 10714 10713 10713 10711 10710 10707 10706 10705 10706 10707 10707 10706 10705 10705 10705 10705 10705 10705 10705 10705 10705 10706 10706 10706 10707 10708 10708 10708 10708
10805 10807 10807 10809 10809 10809 10810 10811 10811 10812 10812 10811 10811 10810 10810 10810 10809 10807 10806 10804 10803 10801 10799 10796 10794 10792 10789 10786 10783 10780 10778 10775 10772 10769 10766 10763 10760 10757 10754 10752 10749 10746 10744 10741 10738 10735 10731 10727 10724 10721 10719 10717 10715 10714 10712 10712 10712 10712 10712 10711 10709 10707 10705 10704 10704 10705 10705 10705 10704 10704 10703 10703 10703 10703 10703 10703 10703 10704 10704 10704 10705 10706 10706 10707 10707
10802 10804 10805 10805 10806 10806 10807 10808 10808 10809 10808 10807 10807 10807 10807 10806 10805 10804 10802 10801 10800 10798 10795 10793 10791 10788 10785 10783 10780 10777 10774 10771 10768 10765 10762 10759 10756 10753 10750 10748 10745 10742 10740 10737 10734 10731 10727 10724 10720 10717 10715 10714 10713 10711 10710 10709 10710 10710 10710 10710 10709 10707 10705 10703 10702 10702 10703 10704 10704 10703 10702 10701 10701 10701 10701 10701 10701 10702 10703 10703 10703 10704 10704 10706 10706
10800 10801 10802 10803 10803 10804 10805 10805 10805 10805 10805 10804 10804 10804 10804 10803 10802 10801 10799 10798 10796 10794 10792 10790 10788 10785 10782 10780 10776 10773 10770 10767 10764 10761 10759 10755 10753 10750 10747 10744 10741 10738 10736 10734 10730 10727 10724 10720 10717 10714 10712 10711 10710 10709 10708 10707 10707 10708 10709 10709 10708 10707 10705 10702 10701 10700 10701 10702 10702 10702 10701 10700 10700 10699 10698 10699 10699 10700 10701 10702 10702 10703 10703 10704 10705
10797 10798 10799 10800 10801 10801 10802 10802 10802 10802 10801 10800 10800 10800 10800 10799 10799 10797 10795 10794 10793 10790 10789 10787 10784 10782 10779 10777 10773 10769 10766 10764 10760 10758 10755 10752 10749 10747 10744 10740 10737 10735 10733 10730 10727 10724 10721 10717 10714 10711 10709 10708 10708 10707 10706 10706 10706 10706 10707 10707 10707 10706 10705 10703 10701 10699 10699 10699 10699 10700 10700 10699 10698 10698 10697 10696 10697 10697 10699 10700 10701 10701 10701 10702 10703
10794 10795 10797 10798 10798 10799 10799 10799 10799 10798 10798 10797 10797 10797 10797 10796 10795 10793 10792 10791 10789 10787 10786 10783 10781 10778 10776 10774 10770 10766 10763 10760 10757 10754 10751 10749 10746 10743 10740 10737 10734 10731 10729 10727 10724 10721 10718 10714 10711 10708 10706 10705 10705 10705 10704 10705 10705 10705 10705 10706 10706 10706 10705 10703 10701 10699 10698 10697 10696 10697 10697 10697 10697 10696 10696 10695 10695 10695 10696 10697 10698 10699 10700 10700 10701
10792 10793 10794 10795 10796 10796 10796 10796 10796 10795 10794 10794 10794 10793 10793 10793 10791 10789 10788 10787 10785 10784 10782 10780 10778 10775 10772 10770 10767 10763 10759 10757 10753 10750 10748 10745 10742 10740 10737 10734 10731 10728 10726 10724 10721 10718 10715 10712 10709 10706 10704 10703 10703 10703 10703 10703 10704 10703 10703 10704 10705 10705 10705 10704 10702 10700 10698 10696 10695 10694 10694 10694 10695 10694 10694 10694 10694 10694 10694 10695 10696 10697 10698 10698 10698
10790 10791 10792 10793 10794 10794 10794 10793 10792 10792 10791 10791 10790 10790 10790 10789 10787 10786 10785 10784 10782 10781 10779 10777 10775 10772 10769 10766 10764 10760 10757 10753 10750 10747 10745 10742 10739 10737 10734 10731 10728 10725 10723 10721 10718 10715 10712 10709 10707 10704 10702 10701 10701 10702 10702 10702 10702 10702 10702 10703 10703 10704 10704 10703 10702 10701 10699 10697 10696 10694 10693 10693 10693 10693 10693 10692 10692 10692 10693 10693 10694 10695 10695 10696 10696
10787 10788 10789 10790 10791 10790 10790 10789 10789 10788 10787 10787 10786 10786 10787 10786 10784 10783 10782 10781 10779 10777 10776 10774 10772 10769 10765 10762 10760 10757 10754 10751 10747 10744 10742 10739 10737 10734 10731 10729 10725 10722 10721 10718 10716 10713 10710 10707 10705 10702 10701 10700 10700 10701 10701 10701 10701 10701 10701 10702 10702 10702 10702 10703 10702 10701 10700 10699 10697 10695 10694 10693 10692 10692 10692 10691 10691 10691 10691 10691 10692 10692 10693 10694 10694
10785 10785 10786 10787 10787 10787 10786 10785 10785 10784 10783 10783 10783 10783 10783 10782 10781 10780 10778 10777 10776 10775 10773 10771 10769 10765 10762 10759 10756 10754 10751 10747 10744 10741 10739 10737 10734 10731 10728 10726 10723 10720 10718 10716 10713 10711 10709 10706 10703 10701 10699 10699 10698 10699 10700 10700 10700 10700 10700 10701 10701 10701 10701 10702 10701 10701 10700 10699 10697 10696 10695 10694 10693 10692 10692 10691 10690 10690 10690 10690 10690 10691 10691 10692 10692
10782 10783 10783 10783 10783 10783 10783 10782 10781 10781 10779 10779 10780 10781 10780 10779 10778 10777 10775 10774 10773 10772 10770 10768 10765 10762 10759 10756 10753 10751 10748 10744 10741 10738 10736 10734 10732 10728 10726 10724 10720 10717 10715 10713 10711 10709 10707 10705 10702 10700 10698 10698 10698 10698 10699 10699 10699 10699 10699 10700 10700 10700 10700 10700 10700 10700 10699 10698 10697 10696 10695 10694 10693 10692 10692 10691 10690 10690 10689 10689 10689 10689 10689 10690 10690
10779 10780 10780 10780 10780 10780 10779 10778 10778 10777 10776 10776 10777 10778 10778 10776 10775 10773 10772 10771 10770 10769 10767 10764 10762 10759 10757 10753 10750 10748 10745 10742 10739 10736 10733 10731 10729 10726 10723 10721 10718 10715 10713 10711 10709 10707 10706 10703 10701 10699 10697 10697 10697 10697 10697 10697 10698 10698 10698 10698 10699 10699 10699 10699 10699 10699 10698 10697 10697 10696 10694 10693 10693 10692 10691 10691 10690 10689 10689 10688 10688 10688 10688 10688 10688
10777 10777 10777 10777 10777 10777 10776 10775 10774 10774 10773 10773 10775 10776 10775 10773 10772 10770 10769 10768 10768 10767 10765 10762 10759 10756 10754 10750 10747 10745 10742 10739 10736 10733 10731 10729 10727 10724 10721 10719 10717 10713 10711 10709 10707 10705 10704 10702 10700 10698 10697 10696 10696 10696 10697 10696 10696 10697 10697 10697 10697 10697 10698 10698 10698 10698 10697 10697 10696 10695 10694 10693 10692 10691 10691 10690 10689 10689 10688 10688 10687 10687 10687 10687 10686
10774 10775 10775 10774 10774 10773 10772 10771 10771 10770 10770 10771 10772 10773 10772 10770 10769 10768 10766 10765 10765 10763 10762 10759 10756 10753 10750 10748 10744 10742 10739 10737 10734 10731 10728 10726 10724 10722 10719 10717 10715 10712 10709 10707 10705 10703 10702 10700 10699 10698 10696 10695 10695 10695 10696 10695 10695 10696 10696 10696 10696 10696 10696 10697 10696 10696 10696 10696 10695 10695 10694 10693 10692 10691 10690 10690 10689 10688 10687 10687 10687 10686 10686 10686 10685
10772 10772 10772 10772 10771 10770 10769 10768 10768 10768 10768 10768 10770 10771 10769 10767 10766 10766 10764 10762 10761 10760 10758 10757 10754 10751 10747 10744 10741 10739 10737 10735 10732 10729 10726 10724 10722 10720 10717 10715 10713 10710 10707 10705 10703 10701 10700 10699 10698 10696 10695 10695 10694 10694 10695 10695 10694 10695 10695 10695 10695 10695 10695 10695 10695 10695 10695 10694 10694 10693 10693 10692 10691 10690 10689 10689 10688 10687 10686 10686 10686 10685 10685 10684 10684
10770 10770 10770 10769 10768 10767 10766 10766 10766 10766 10766 10767 10768 10768 10767 10765 10764 10763 10762 10759 10757 10756 10755 10754 10751 10748 10745 10742 10739 10736 10734 10732 10730 10728 10725 10722 10720 10718 10716 10713 10711 10708 10705 10703 10701 10699 10698 10697 10696 10695 10694 10694 10693 10693 10693 10694 10693 10693 10693 10693 10694 10694 10694 10694 10694 10693 10693 10693 10692 10691 10691 10690 10689 10689 10688 10687 10687 10686 10685 10685 10684 10684 10683 10683 10683
10768 10768 10767 10766 10765 10765 10764 10764 10764 10764 10764 10765 10766 10766 10764 10763 10762 10760 10759 10757 10755 10753 10752 10751 10748 10745 10742 10739 10736 10733 10731 10730 10728 10725 10723 10720 10718 10716 10714 10712 10709 10706 10704 10701 10699 10698 10697 10696 10695 10694 10693 10693 10692 10692 10692 10692 10693 10692 10692 10692 10692 10692 10692 10692 10692 10692 10691 10691 10690 10690 10689 10689 10688 10687 10686 10686 10685 10685 10684 10683 10683 10682 10682 10682 10681
10766 10765 10765 10765 10764 10764 10763 10763 10763 10763 10763 10763 10764 10764 10762 10761 10759 10758 10757 10755 10753 10751 10750 10748 10745 10742 10739 10737 10734 10731 10729 10727 10725 10723 10721 10718 10716 10713 10711 10710 10708 10705 10703 10700 10698 10696 10695 10694 10693 10693 10692 10692 10691 10691 10691 10691 10691 10691 10691 10691 10691 10691 10691 10691 10690 10690 10689 10689 10689 10688 10688 10687 10686 10686 10685 10684 10684 10683 10683 10682 10681 10681 10680 10680 10679
10763 10763 10763 10763 10762 10762 10762 10761 10762 10762 10762 10761 10761 10761 10760 10759 10757 10756 10755 10753 10750 10748 10747 10745 10742 10739 10736 10734 10732 10729 10727 10725 10723 10721 10719 10717 10714 10712 10709 10707 10706 10704 10702 10699 10697 10695 10694 10693 10692 10691 10691 10690 10690 10690 10690 10689 10689 10690 10690 10690 10689 10689 10689 10689 10689 10688 10687 10687 10686 10686 10685 10685 10684 10684 10683 10682 10682 10681 10681 10680 10679 10679 10678 10677 10677
10760 10761 10761 10760 10760 10760 10760 10760 10760 10761 10760 10759 10759 10759 10758 10757 10755 10754 10753 10751 10747 10745 10744 10742 10739 10736 10734 10732 10729 10727 10725 10722 10720 10718 10716 10715 10713 10710 10708 10706 10704 10702 10701 10699 10696 10694 10693 10691 10690 10690 10689 10689 10689 10688 10688 10688 10688 10688 10688 10688 10688 10688 10688 10687 10687 10686 10686 10685 10684 10684 10683 10682 10682 10681 10680 10680 10679 10678 10678 10678 10677 10676 10676 10675 10674
10758 10758 10758 10757 10758 10758 10759 10759 10759 10759 10759 10757 10757 10757 10756 10754 10753 10751 10750 10748 10745 10743 10741 10740 10737 10734 10731 10729 10727 10725 10722 10720 10718 10716 10714 10713 10711 10709 10707 10704 10702 10701 10700 10698 10696 10693 10692 10690 10689 10688 10688 10687 10687 10687 10687 10686 10686 10686 10686 10686 10687 10687 10686 10685 10685 10685 10684 10683 10682 10682 10681 10680 10680 10679 10678 10677 10677 10676 10675 10675 10674 10674 10673 10673 10672
10756 10756 10755 10755 10756 10757 10757 10757 10757 10757 10757 10755 10755 10754 10753 10752 10750 10748 10747 10745 10743 10740 10738 10737 10735 10732 10729 10727 10725 10722 10720 10718 10717 10715 10713 10711 10709 10708 10706 10703 10701 10700 10698 10697 10695 10693 10691 10689 10688 10687 10686 10686 10685 10685 10685 10685 10685 10684 10684 10684 10684 10684 10684 10684 10683 10682 10682 10681 10681 10680 10679 10678 10677 10677 10676 10675 10675 10674 10673 10672 10672 10671 10671 10670 10670
10755 10755 10754 10753 10755 10756 10756 10756 10756 10755 10754 10753 10752 10752 10751 10749 10747 10745 10744 10742 10740 10738 10736 10735 10733 10730 10727 10725 10723 10720 10718 10716 10714 10712 10710 10709 10707 10706 10704 10702 10700 10699 10697 10696 10694 10693 10691 10689 10687 10686 10685 10684 10684 10684 10684 10683 10683 10683 10682 10682 10682 10682 10681 10681 10681 10680 10680 10679 10678 10678 10677 10676 10676 10675 10674 10673 10673 10672 10671 10670 10670 10669 10669 10668 10668
10753 10753 10752 10752 10753 10754 10755 10755 10754 10753 10752 10751 10750 10749 10748 10746 10745 10743 10741 10739 10738 10736 10734 10733 10730 10728 10725 10723 10721 10719 10717 10714 10712 10710 10708 10706 10705 10703 10702 10700 10699 10697 10696 10695 10693 10692 10690 10688 10687 10685 10684 10683 10683 10682 10682 10682 10681 10681 10681 10680 10680 10679 10679 10679 10678 10678 10678 10677 10676 10675 10675 10674 10673 10673 10672 10671 10670 10670 10669 10668 10668 10667 10666 10666 10665
10750 10750 10751 10751 10751 10752 10753 10752 10751 10750 10749 10748 10747 10746 10745 10744 10742 10741 10739 10737 10736 10734 10732 10730 10728 10725 10723 10721 10719 10717 10715 10713 10710 10709 10707 10705 10703 10701 10700 10699 10697 10696 10695 10693 10692 10690 10689 10687 10685 10684 10683 10682 10681 10680 10680 10680 10679 10679 10678 10678 10678 10677 10677 10676 10675 10675 10675 10675 10674 10674 10673 10672 10671 10670 10669 10668 10667 10667 10666 10666 10665 10665 10664 10663 10663
10748 10749 10749 10749 10749 10750 10750 10749 10748 10747 10746 10745 10744 10743 10742 10741 10740 10738 10736 10735 10734 10732 10730 10728 10726 10723 10721 10719 10717 10715 10713 10711 10709 10707 10705 10704 10702 10700 10698 10697 10696 10694 10693 10692 10691 10689 10688 10686 10684 10683 10681 10681 10680 10679 10678 10678 10677 10677 10676 10676 10675 10675 10675 10674 10673 10673 10672 10672 10671 10671 10670 10670 10668 10667 10667 10666 10665 10664 10663 10663 10662 10662 10661 10661 10660
10748 10749 10748 10747 10747 10748 10747 10746 10745 10745 10744 10742 10741 10740 10739 10738 10737 10735 10734 10733 10732 10730 10728 10726 10723 10722 10720 10718 10716 10713 10711 10709 10707 10705 10704 10702 10700 10698 10696 10695 10694 10693 10692 10690 10689 10687 10686 10685 10683 10682 10681 10680 10679 10678 10677 10676 10676 10675 10674 10674 10673 10673 10672 10671 10671 10670 10669 10669 10668 10667 10667 10667 10666 10665 10664 10663 10662 10662 10660 10660 10659 10659 10658 10658 10657
10749 10748 10747 10746 10746 10746 10745 10744 10743 10742 10741 10740 10739 10737 10736 10735 10735 10734 10732 10731 10729 10728 10726 10723 10721 10720 10718 10717 10714 10712 10710 10708 10705 10704 10702 10700 10698 10696 10694 10693 10692 10691 10690 10689 10687 10686 10685 10683 10682 10681 10679 10678 10677 10676 10676 10675 10674 10673 10672 10672 10671 10670 10670 10669 10668 10668 10667 10666 10665 10664 10664 10663 10663 10662 10661 10660 10659 10659 10658 10657 10656 10656 10655 10654 10654
10749 10747 10745 10744 10744 10743 10743 10742 10741 10740 10739 10738 10736 10735 10734 10733 10732 10731 10730 10729 10727 10726 10724 10721 10720 10718 10716 10715 10713 10710 10708 10706 10704 10702 10700 10699 10697 10695 10693 10691 10690 10689 10688 10687 10686 10684 10683 10682 10680 10679 10678 10677 10675 10674 10673 10673 10672 10671 10671 10670 10669 10668 10667 10666 10665 10665 10664 10663 10662 10661 10661 10660 10659 10659 10658 10658 10657 10656 10655 10654 10654 10653 10653 10652 10651
10748 10746 10745 10744 10743 10742 10741 10740 10738 10737 10736 10735 10734 10733 10732 10731 10730 10729 10729 10728 10726 10724 10722 10720 10718 10717 10715 10713 10711 10709 10707 10705 10703 10701 10699 10697 10695 10693 10691 10689 10688 10687 10686 10685 10684 10683 10682 10680 10679 10677 10676 10675 10673 10672 10671 10670 10670 10669 10669 10668 10667 10666 10665 10664 10663 10662 10661 10660 10659 10658 10657 10656 10656 10655 10655 10655 10654 10654 10653 10652 10651 10650 10650 10649 10648
10747 10744 10743 10742 10741 10740 10739 10738 10736 10734 10733 10732 10732 10732 10731 10730 10729 10728 10727 10725 10723 10721 10719 10718 10716 10715 10714 10711 10709 10707 10705 10703 10702 10700 10698 10696 10694 10692 10690 10688 10686 10685 10684 10683 10682 10681 10680 10679 10677 10675 10674 10672 10671 10670 10669 10668 10668 10667 10666 10666 10665 10664 10663 10662 10661 10660 10659 10657 10656 10655 10654 10653 10653 10652 10651 10651 10651 10650 10650 10649 10648 10647 10647 10646 10645
10744 10742 10741 10740 10739 10738 10736 10735 10734 10732 10731 10730 10730 10730 10730 10729 10727 10726 10724 10723 10721 10719 10717 10716 10714 10713 10712 10710 10708 10705 10704 10702 10700 10699 10697 10695 10693 10691 10690 10688 10686 10684 10682 10681 10680 10679 10678 10677 10676 10674 10672 10670 10669 10668 10667 10666 10666 10665 10665 10664 10663 10662 10661 10660 10659 10658 10656 10655 10653 10652 10650 10650 10649 10649 10648 10647 10647 10647 10646 10646 10645 10645 10644 10643 10643
10742 10741 10740 10739 10737 10735 10733 10732 10731 10729 10729 10729 10728 10728 10727 10726 10724 10723 10722 10720 10718 10716 10714 10713 10712 10711 10709 10708 10706 10704 10702 10700 10699 10697 10695 10694 10692 10690 10688 10687 10685 10683 10682 10680 10679 10677 10676 10675 10674 10672 10671 10669 10668 10666 10665 10665 10664 10664 10663 10662 10662 10661 10659 10658 10657 10656 10654 10653 10651 10649 10647 10646 10645 10645 10644 10644 10643 10643 10643 10642 10641 10641 10640 10639 10639
10741 10740 10739 10737 10734 10733 10732 10730 10729 10727 10727 10727 10726 10725 10724 10723 10721 10720 10719 10717 10716 10714 10712 10711 10709 10708 10707 10705 10704 10702 10700 10698 10697 10696 10694 10692 10691 10689 10687 10686 10684 10682 10681 10680 10678 10676 10675 10673 10672 10671 10670 10668 10667 10665 10664 10664 10663 10662 10662 10661 10660 10659 10658 10656 10655 10654 10652 10651 10649 10647 10645 10643 10641 10640 10640 10639 10639 10639 10639 10639 10638 10637 10636 10635 10635